Wind_Speed
14 13 12 11 10 9 8 8 7 6 6 5 6 7 7 7 6 6 6 7 7 8 8 8 8 8 7 7 6 6 5 5 5 4 4 4 3 3 3 4 5 6
15 14 13 12 12 11 10 8 7 7 6 6 6 6 7 7 7 7 6 6 6 7 8 8 8 8 8 8 7 7 6 6 5 5 5 5 4 4 4 4 4 4
16 15 14 14 13 12 10 9 8 7 7 7 7 6 5 6 6 7 7 7 6 6 7 7 8 8 8 8 8 8 7 7 7 7 6 6 5 5 5 5 5 5
17 17 16 15 14 12 11 10 9 8 8 7 6 6 5 5 6 6 6 6 6 6 6 6 7 7 7 7 7 7 7 7 7 7 7 7 7 6 6 6 5 6
19 18 17 16 15 14 13 12 11 10 9 8 7 6 6 6 5 5 5 5 5 6 6 6 6 6 6 6 7 7 6 6 6 7 7 7 8 8 7 6 6 6
20 19 18 17 16 15 15 14 12 11 10 10 9 8 7 7 7 6 6 5 5 5 6 6 7 7 7 7 6 6 6 6 6 6 6 7 7 7 7 6 6 7
21 20 20 19 17 17 16 15 14 14 13 11 11 10 9 9 8 7 7 7 6 6 6 6 7 7 8 8 7 7 7 6 6 6 6 6 6 6 6 6 6 7
23 22 22 21 19 19 18 17 16 16 15 14 13 12 11 10 10 9 9 9 8 7 7 7 7 8 8 8 8 8 8 7 7 7 6 6 6 5 5 5 5 6
24 24 23 22 22 21 20 19 19 18 17 16 15 14 13 12 12 11 11 11 10 9 9 9 9 9 9 9 9 9 9 8 8 8 8 8 7 6 5 5 5 5
25 25 24 24 24 24 23 22 21 20 20 18 17 16 16 15 14 13 14 13 12 11 11 11 10 10 10 10 9 9 9 9 9 9 9 9 8 7 7 6 6 6
27 26 26 26 26 26 26 25 24 23 23 21 20 20 19 17 16 16 16 16 14 13 13 13 12 12 12 11 11 10 10 10 10 10 10 9 8 8 8 8 8 8
28 28 28 28 29 28 28 27 26 26 25 24 23 23 21 20 19 19 19 18 17 16 15 15 14 13 13 13 12 12 11 11 11 11 10 10 10 10 10 10 10 10
30 30 31 31 31 31 31 29 28 28 27 26 25 24 23 22 21 21 21 20 19 18 18 17 16 15 15 15 14 14 13 12 12 12 11 11 11 12 11 11 11 11
31 31 32 32 31 31 30 29 29 28 28 27 26 25 25 24 24 23 23 22 21 21 21 20 19 19 18 17 16 16 15 14 14 13 13 13 13 13 13 12 12 12
30 31 32 32 31 29 28 27 27 28 28 28 27 27 26 26 25 25 24 23 23 22 23 22 22 21 21 20 19 18 17 15 15 15 16 16 15 15 15 15 14 14
29 30 31 32 31 30 29 29 28 27 27 27 27 28 28 27 26 25 25 24 23 22 23 23 24 24 23 23 22 21 19 18 17 18 19 19 18 17 17 17 16 16
29 30 31 32 31 31 32 31 30 29 28 28 28 28 29 28 26 25 25 25 24 23 23 24 25 25 25 24 24 23 23 22 21 21 21 21 20 19 19 18 18 18
31 30 31 31 30 31 32 32 31 31 30 30 29 28 29 29 28 26 25 25 25 25 25 25 25 24 24 24 25 25 25 24 24 24 24 23 22 21 21 20 20 20
35 33 31 30 29 29 31 32 32 33 34 33 31 29 28 28 29 28 25 24 24 25 26 26 25 24 24 25 25 26 26 25 25 26 26 25 25 24 23 22 22 22
37 35 32 30 29 29 32 33 34 35 36 34 32 29 28 28 28 28 26 25 25 25 25 25 25 25 26 26 26 26 26 26 27 27 27 27 26 26 25 24 24 24
37 37 36 33 32 32 34 36 36 36 36 35 32 29 28 28 28 28 27 26 25 25 24 24 24 25 26 25 25 25 26 26 26 27 27 27 27 27 27 27 27 26
38 39 39 37 35 34 34 35 36 34 34 35 34 32 30 30 29 28 27 27 26 25 24 24 24 24 24 24 25 25 25 26 26 26 26 26 27 27 27 28 27 27
39 40 41 39 36 35 34 34 34 35 35 35 35 34 32 32 32 30 28 27 27 26 26 25 23 23 23 23 24 25 25 25 25 25 25 26 27 28 28 28 27 27
37 39 42 40 38 37 37 35 34 35 36 37 36 35 34 33 33 31 29 29 30 29 29 28 26 25 24 24 24 24 24 24 24 24 25 25 26 27 28 28 28 28
37 39 41 41 39 39 39 37 37 36 36 36 37 36 35 34 34 33 32 32 33 33 32 32 31 29 27 26 26 26 26 26 26 26 26 27 28 29 30 30 31 31
36 38 40 40 40 39 38 39 39 39 39 39 38 37 36 34 33 33 33 34 37 38 36 34 34 33 31 29 29 28 28 28 28 28 29 30 30 32 34 34 35 35
Wind_Direction
204 205 204 205 205 207 212 217 220 225 222 213 205 198 193 197 200 200 200 198 195 196 197 196 196 197 196 195 194 194 190 179 173 177 183 195 205 208 212 220 233 245
205 206 204 204 205 208 213 216 219 227 232 228 223 213 202 201 206 208 207 207 207 205 206 206 207 209 211 211 211 210 210 206 203 204 205 209 214 212 216 230 244 255
207 208 207 206 207 209 210 213 217 222 227 232 235 230 216 210 212 215 215 214 213 213 214 215 217 220 221 222 223 223 223 222 221 223 227 229 233 232 231 240 254 267
209 210 211 209 208 208 209 210 213 217 223 229 236 239 233 225 220 221 223 223 223 224 225 225 226 228 227 226 230 232 232 231 230 232 236 240 245 247 247 248 255 266
211 212 214 214 211 211 211 211 211 215 222 224 228 234 237 236 231 227 226 228 233 237 238 238 236 237 236 234 235 237 237 239 240 240 239 243 248 252 256 258 259 264
213 213 216 217 216 216 216 217 214 215 221 224 226 230 234 238 239 237 234 232 235 242 246 246 244 243 243 242 239 239 242 247 250 250 247 248 252 257 263 266 266 268
216 215 217 219 220 220 220 220 218 217 220 222 226 229 231 237 242 245 243 240 239 242 243 248 251 250 247 246 246 245 247 254 259 260 258 257 260 267 272 275 275 275
219 218 219 219 220 222 223 222 221 222 222 221 224 227 231 236 242 248 250 246 243 243 243 245 251 255 255 253 253 252 254 259 264 268 270 268 267 269 276 283 286 283
220 220 221 221 221 222 223 225 226 227 227 226 226 228 230 233 239 245 249 248 246 246 247 247 249 253 257 258 260 260 260 264 268 270 271 270 269 266 267 275 283 283
220 220 221 222 222 222 222 225 227 229 230 231 231 231 231 231 234 239 244 246 246 245 247 248 249 251 253 255 258 261 262 264 268 270 270 269 270 271 271 272 273 271
223 222 221 222 222 222 221 222 224 226 230 231 232 233 233 232 232 235 239 241 243 244 245 246 247 249 252 254 255 257 259 259 261 264 265 265 268 272 273 270 268 266
226 225 223 223 223 222 221 220 221 223 227 229 230 232 232 231 232 234 237 238 239 241 243 244 245 248 251 254 255 256 257 256 255 256 258 261 262 261 262 264 267 269
229 229 227 226 225 224 223 221 220 221 223 225 227 230 231 231 231 233 235 237 238 239 240 242 244 247 249 251 253 254 255 255 253 252 254 256 256 255 256 258 263 268
234 235 235 234 232 231 230 228 226 224 224 224 224 226 229 231 232 233 234 236 237 239 240 241 242 244 246 247 249 251 252 253 252 251 251 252 253 256 257 256 257 261
234 237 239 241 241 240 239 238 236 234 232 231 229 228 228 230 233 235 235 236 237 240 243 245 245 246 247 249 249 251 252 254 256 256 254 253 252 253 254 256 257 257
233 234 237 240 241 241 239 238 238 238 238 237 236 236 235 233 234 236 238 239 239 241 244 247 248 248 248 249 250 251 253 253 254 256 258 259 258 257 258 259 259 260
235 234 235 237 238 238 237 236 235 235 236 237 239 242 243 241 238 238 241 242 242 241 243 245 247 247 248 248 249 250 250 250 250 251 253 256 258 259 260 261 263 264
239 236 235 235 236 236 236 237 235 233 233 235 235 238 243 245 243 240 241 245 247 247 246 246 247 247 248 250 251 252 252 251 251 251 252 253 254 254 256 258 260 262
242 241 240 239 238 238 238 238 238 236 235 234 232 233 237 243 245 242 240 243 248 252 253 253 252 251 250 252 253 254 254 253 252 252 252 253 254 254 255 255 256 258
240 240 242 243 242 241 240 240 241 240 238 235 233 234 236 239 243 243 241 240 242 247 252 255 257 255 253 253 254 254 255 254 253 252 252 252 253 255 256 257 256 256
239 238 238 240 242 242 241 239 239 242 241 237 235 238 241 242 243 245 244 242 241 239 240 245 251 254 256 255 255 255 255 255 255 255 254 255 255 255 256 257 258 259
239 237 236 237 238 241 241 237 235 236 238 237 236 239 243 242 240 242 243 244 244 242 240 240 243 248 253 255 256 255 255 255 256 257 258 258 258 258 257 258 259 261
238 237 237 236 236 238 239 238 234 231 232 236 238 240 242 241 240 242 243 244 245 246 245 245 245 246 249 252 254 254 254 255 256 258 260 260 260 260 260 260 260 261
239 238 237 235 234 236 237 237 237 236 236 237 239 241 245 245 243 244 246 247 249 249 249 248 247 247 248 249 250 252 253 254 255 257 259 260 261 263 263 263 264 265
237 236 236 235 233 236 238 238 240 241 240 240 240 242 248 250 247 246 250 253 254 253 252 250 247 247 250 250 250 250 251 253 254 255 257 259 261 263 264 264 265 265
237 237 238 236 234 236 240 241 241 242 242 242 241 243 248 250 248 248 253 257 257 255 253 252 249 248 251 252 251 251 252 253 256 257 258 260 261 262 264 265 266 265
Height
5928 5929 5930 5931 5931 5932 5933 5934 5935 5935 5936 5936 5937 5937 5937 5938 5938 5939 5939 5940 5940 5941 5941 5942 5942 5942 5942 5943 5943 5943 5944 5944 5944 5944 5944 5945 5945 5946 5946 5946 5946 5945
5928 5929 5929 5930 5931 5931 5932 5934 5934 5935 5936 5936 5937 5937 5937 5938 5938 5939 5939 5940 5940 5941 5941 5942 5942 5942 5942 5943 5943 5943 5944 5944 5944 5944 5944 5944 5944 5945 5945 5945 5945 5945
5927 5928 5928 5929 5930 5931 5932 5933 5933 5934 5935 5936 5936 5937 5937 5938 5938 5939 5939 5939 5940 5940 5941 5941 5942 5942 5942 5943 5943 5943 5944 5944 5944 5944 5944 5944 5944 5944 5945 5945 5945 5945
5925 5926 5927 5928 5929 5930 5931 5931 5932 5933 5934 5935 5936 5936 5937 5938 5938 5938 5939 5939 5940 5940 5940 5941 5941 5942 5942 5942 5942 5943 5943 5943 5943 5943 5944 5944 5944 5944 5944 5944 5944 5944
5924 5925 5926 5927 5928 5929 5929 5930 5931 5932 5933 5934 5935 5936 5936 5937 5938 5938 5939 5939 5939 5940 5940 5940 5941 5941 5941 5942 5942 5942 5943 5943 5943 5943 5944 5944 5944 5944 5944 5944 5944 5944
5923 5924 5925 5926 5927 5928 5929 5929 5930 5931 5932 5933 5934 5934 5935 5936 5937 5938 5938 5939 5939 5939 5940 5940 5940 5940 5941 5941 5941 5942 5942 5942 5943 5943 5944 5944 5944 5944 5944 5944 5944 5944
5921 5922 5923 5924 5925 5926 5927 5928 5929 5930 5930 5931 5932 5933 5934 5935 5936 5937 5937 5938 5938 5938 5939 5939 5939 5939 5940 5940 5940 5941 5941 5942 5942 5943 5943 5943 5943 5944 5943 5943 5943 5943
5919 5920 5922 5923 5924 5925 5926 5927 5928 5929 5929 5930 5931 5932 5933 5934 5935 5936 5936 5937 5937 5938 5938 5938 5938 5938 5939 5939 5939 5940 5940 5941 5941 5942 5942 5942 5943 5943 5943 5943 5943 5943
5917 5919 5920 5922 5922 5923 5925 5926 5927 5927 5928 5929 5929 5930 5931 5932 5933 5934 5935 5936 5936 5936 5937 5937 5937 5937 5937 5938 5938 5939 5939 5940 5940 5941 5941 5941 5942 5942 5942 5942 5943 5943
5916 5917 5918 5920 5920 5921 5922 5923 5925 5926 5926 5927 5927 5928 5929 5930 5931 5932 5933 5933 5934 5935 5935 5935 5936 5936 5936 5936 5937 5937 5938 5938 5939 5939 5940 5940 5941 5941 5941 5942 5942 5942
5914 5915 5916 5917 5918 5919 5919 5920 5922 5923 5923 5924 5925 5926 5927 5927 5928 5929 5930 5931 5932 5932 5933 5933 5934 5934 5935 5935 5935 5936 5936 5937 5937 5938 5938 5938 5939 5940 5940 5940 5940 5940
5912 5913 5913 5914 5915 5915 5916 5917 5918 5919 5920 5921 5922 5923 5924 5925 5925 5926 5927 5928 5929 5930 5931 5932 5932 5932 5933 5933 5934 5934 5935 5935 5936 5936 5937 5937 5937 5937 5938 5938 5938 5939
5909 5910 5911 5911 5911 5912 5913 5914 5914 5915 5916 5917 5918 5920 5921 5921 5922 5923 5924 5925 5927 5928 5929 5929 5930 5930 5931 5931 5932 5933 5933 5934 5934 5935 5935 5935 5935 5935 5936 5936 5936 5937
5907 5909 5909 5910 5910 5911 5912 5913 5914 5914 5914 5915 5915 5917 5917 5918 5919 5919 5921 5922 5924 5925 5926 5927 5928 5928 5928 5929 5930 5931 5931 5932 5933 5933 5933 5933 5934 5934 5934 5934 5934 5935
5904 5906 5907 5909 5910 5911 5912 5913 5913 5913 5913 5914 5914 5915 5915 5915 5916 5917 5918 5919 5920 5922 5923 5924 5925 5925 5926 5927 5928 5928 5929 5930 5931 5931 5931 5932 5932 5932 5932 5932 5933 5933
5900 5902 5904 5905 5907 5908 5908 5909 5909 5910 5911 5912 5913 5913 5913 5913 5914 5915 5916 5916 5918 5919 5921 5922 5922 5923 5923 5924 5925 5926 5927 5928 5929 5929 5929 5929 5930 5930 5931 5931 5931 5931
5897 5898 5900 5901 5903 5903 5904 5905 5906 5907 5908 5909 5910 5911 5912 5912 5912 5913 5914 5914 5915 5916 5918 5918 5919 5920 5921 5921 5922 5923 5924 5925 5926 5926 5926 5927 5927 5928 5929 5929 5929 5930
5893 5894 5895 5897 5899 5900 5900 5902 5904 5904 5904 5904 5905 5906 5908 5909 5910 5910 5911 5912 5913 5913 5914 5915 5916 5917 5918 5919 5920 5920 5921 5922 5923 5923 5924 5924 5924 5925 5926 5926 5927 5927
5890 5891 5893 5894 5896 5898 5898 5899 5901 5901 5900 5900 5900 5901 5903 5905 5907 5908 5908 5909 5910 5911 5912 5912 5913 5914 5916 5916 5917 5918 5919 5919 5920 5921 5921 5921 5922 5922 5922 5923 5924 5924
5886 5888 5890 5892 5894 5895 5895 5896 5896 5896 5896 5896 5898 5899 5900 5901 5903 5905 5905 5906 5906 5907 5908 5910 5910 5911 5912 5913 5914 5915 5916 5916 5917 5917 5918 5918 5919 5919 5920 5920 5921 5921
5881 5883 5885 5887 5889 5889 5890 5891 5892 5892 5893 5894 5896 5898 5899 5899 5901 5903 5903 5903 5902 5903 5903 5905 5906 5907 5908 5909 5910 5911 5912 5913 5914 5914 5915 5915 5916 5916 5917 5917 5917 5918
5875 5877 5880 5882 5883 5884 5885 5886 5887 5888 5889 5890 5893 5895 5896 5897 5899 5899 5899 5899 5900 5900 5900 5901 5902 5903 5905 5906 5907 5907 5908 5909 5910 5911 5912 5912 5912 5913 5913 5914 5915 5915
5869 5872 5874 5876 5878 5880 5881 5882 5883 5884 5886 5887 5890 5891 5893 5894 5895 5895 5896 5896 5897 5898 5898 5898 5899 5900 5901 5902 5903 5903 5904 5905 5906 5907 5908 5909 5909 5909 5910 5911 5911 5912
5865 5867 5869 5872 5874 5875 5876 5878 5879 5881 5882 5884 5887 5888 5889 5890 5891 5892 5892 5893 5893 5894 5895 5896 5897 5897 5897 5898 5899 5900 5900 5901 5902 5903 5904 5905 5905 5905 5906 5907 5907 5908
5862 5863 5864 5867 5870 5871 5872 5874 5876 5877 5879 5880 5883 5884 5885 5886 5888 5889 5888 5889 5889 5890 5891 5893 5894 5894 5894 5895 5896 5896 5897 5898 5899 5900 5901 5901 5901 5902 5902 5902 5903 5903
5859 5859 5860 5862 5864 5866 5867 5869 5871 5873 5875 5876 5878 5880 5881 5881 5883 5884 5884 5884 5885 5886 5887 5888 5889 5890 5891 5891 5892 5893 5893 5894 5895 5896 5897 5897 5898 5898 5898 5898 5898 5899